Tracking 17265 objects as of 4-September-2015
HD Live streaming from Space Station

Track Soyuz TMA-18M
and Space Station

TIANLIAN 1-02

Track TIANLIAN 1-02 now!
TIANLIAN 1-02 is classified as:


NORAD ID: 37737
Int'l Code: 2011-032A
Perigee: 35,674.2 km
Apogee: 35,912.0 km
Inclination: 1.3 °
Period: 1,436.1 minutes
Semi major axis: 42164 km
RCS: 12.5893 m2 (large)
Launch date: July 11, 2011
Source: People's Republic of China (PRC)

TIANLIAN 1-02 is the second Tianlian 1 data relay satellite, joining a similar craft launched in April 2008. The satellites are part of a network to increase the coverage of tracking stations for Chinese space missions across the globe.
Your satellite tracking list
Your tracking list is empty





NASA's NSSDC Master Catalog

Two Line Element Set (TLE):
1 37737U 11032A   15245.80556116 -.00000076 +00000-0 +10000-3 0  9991
2 37737 001.2594 080.4146 0028205 185.5214 172.7654 01.00274107015208

Source of the keplerian elements: AFSPC

N2YO: 429